N1OTX Weather Reports


time (UTC)temp
C
wind
direction
speed
KPH
gust
KPH
rain 1hr
cm
rain 24hr
cm
rain mn
cm
humidity
%
barometer
mb
20260505090530 11 188 3.2 12.9 0.00 0.00 0.00 77 1009.8
20260505090050 11 183 1.6 4.8 0.00 0.00 0.00 76 1009.8
20260505085529 11 174 1.6 9.7 0.00 0.00 0.00 76 1009.9
20260505085034 11 217 1.6 9.7 0.00 0.00 0.00 76 1010.0
20260505084529 11 200 1.6 6.4 0.00 0.00 0.00 76 1010.0
20260505084029 11 207 1.6 6.4 0.00 0.00 0.00 76 1010.1
20260505083529 11 231 1.6 11.3 0.00 0.00 0.00 76 1010.1
20260505083049 11 219 1.6 11.3 0.00 0.00 0.00 76 1010.0
20260505082529 11 205 1.6 4.8 0.00 0.00 0.00 76 1010.1
20260505082048 11 191 1.6 11.3 0.00 0.00 0.00 75 1010.0
20260505081528 11 229 0.0 9.7 0.00 0.00 0.00 75 1009.9
20260505081030 11 190 1.6 9.7 0.00 0.00 0.00 75 1009.9
20260505080530 11 216 1.6 4.8 0.00 0.00 0.00 75 1010.0
20260505080030 11 184 0.0 3.2 0.00 0.00 0.00 74 1010.1
20260505075530 11 196 1.6 9.7 0.00 0.00 0.00 74 1010.1
20260505075030 11 184 0.0 6.4 0.00 0.00 0.00 74 1010.1
20260505074529 11 213 0.0 3.2 0.00 0.00 0.00 74 1010.0
20260505074029 11 193 1.6 6.4 0.00 0.00 0.00 74 1010.2
20260505073529 11 188 1.6 12.9 0.00 0.00 0.00 74 1010.1
20260505073029 11 168 1.6 6.4 0.00 0.00 0.00 74 1010.1
20260505072530 11 190 1.6 9.7 0.00 0.00 0.00 74 1010.1
20260505072030 11 200 1.6 4.8 0.00 0.00 0.00 73 1010.1
20260505071530 11 171 0.0 3.2 0.00 0.00 0.00 73 1010.1
20260505071030 11 154 0.0 11.3 0.00 0.00 0.00 73 1010.1
20260505070530 11 209 1.6 11.3 0.00 0.00 0.00 73 1010.3
20260505070029 11 173 1.6 4.8 0.00 0.00 0.00 73 1010.2
20260505065529 11 218 1.6 6.4 0.00 0.00 0.00 73 1010.3
20260505065028 11 203 1.6 4.8 0.00 0.00 0.00 72 1010.3
20260505064528 11 198 0.0 4.8 0.00 0.00 0.00 72 1010.3
20260505064050 11 171 1.6 12.9 0.00 0.00 0.00 72 1010.3
20260505063530 11 169 0.0 4.8 0.00 0.00 0.00 72 1010.3
20260505063030 11 141 0.0 4.8 0.00 0.00 0.00 72 1010.3
20260505062530 11 152 0.0 3.2 0.00 0.00 0.00 72 1010.4
20260505062050 11 191 0.0 3.2 0.00 0.00 0.00 72 1010.4
20260505061529 11 211 1.6 6.4 0.00 0.00 0.00 71 1010.3
20260505061029 11 217 0.0 3.2 0.00 0.00 0.00 70 1010.3
20260505060529 11 196 0.0 4.8 0.00 0.00 0.00 70 1010.4
20260505060029 11 210 1.6 4.8 0.00 0.00 0.00 69 1010.3
20260505055529 12 261 0.0 4.8 0.00 0.00 0.00 69 1010.3
20260505055029 12 290 0.0 1.6 0.00 0.00 0.00 68 1010.3
20260505054529 12 180 0.0 4.8 0.00 0.00 0.00 68 1010.4
20260505054029 12 204 1.6 6.4 0.00 0.00 0.00 67 1010.5
20260505053531 12 159 0.0 6.4 0.00 0.00 0.00 67 1010.4
20260505053030 12 215 1.6 6.4 0.00 0.00 0.00 67 1010.4
20260505052530 12 224 1.6 4.8 0.00 0.00 0.00 66 1010.4
20260505052030 12 223 1.6 6.4 0.00 0.00 0.00 66 1010.5
20260505051530 12 197 1.6 6.4 0.00 0.00 0.00 65 1010.4
20260505051030 12 210 1.6 9.7 0.00 0.00 0.00 65 1010.4
20260505050530 12 202 4.8 12.9 0.00 0.00 0.00 65 1010.5
20260505041551 13 204 3.2 16.1 0.00 0.00 0.00 61 1010.5
20260505041030 13 208 3.2 16.1 0.00 0.00 0.00 61 1010.5
20260505040530 13 204 3.2 12.9 0.00 0.00 0.00 61 1010.5
20260505040030 13 179 1.6 6.4 0.00 0.00 0.00 61 1010.4
20260505035530 13 180 1.6 4.8 0.00 0.00 0.00 60 1010.3
20260505035030 13 184 1.6 6.4 0.00 0.00 0.00 59 1010.4
20260505034529 13 224 1.6 11.3 0.00 0.00 0.00 59 1010.4
20260505034029 13 234 3.2 11.3 0.00 0.00 0.00 58 1010.4
20260505033529 13 244 1.6 9.7 0.00 0.00 0.00 58 1010.4
20260505033031 13 208 1.6 11.3 0.00 0.00 0.00 57 1010.4
20260505032551 13 196 3.2 14.5 0.00 0.00 0.00 56 1010.4
20260505032051 13 205 3.2 22.5 0.00 0.00 0.00 56 1010.3
20260505031531 13 200 3.2 14.5 0.00 0.00 0.00 55 1010.2
20260505031032 13 214 3.2 14.5 0.00 0.00 0.00 55 1010.3
20260505030530 13 220 1.6 12.9 0.00 0.00 0.00 55 1010.3
20260505030030 14 196 3.2 17.7 0.00 0.00 0.00 54 1010.3
20260505025530 14 199 4.8 17.7 0.00 0.00 0.00 54 1010.3
20260505025030 14 233 3.2 11.3 0.00 0.00 0.00 53 1010.3
20260505024530 14 193 1.6 9.7 0.00 0.00 0.00 53 1010.3
20260505024050 14 219 3.2 9.7 0.00 0.00 0.00 53 1010.4
20260505023550 14 217 3.2 20.9 0.00 0.00 0.00 52 1010.4
20260505023029 14 208 3.2 20.9 0.00 0.00 0.00 52 1010.5
20260505022550 14 187 3.2 11.3 0.00 0.00 0.00 52 1010.5
20260505022031 14 203 1.6 9.7 0.00 0.00 0.00 51 1010.4
20260505021531 14 234 1.6 11.3 0.00 0.00 0.00 51 1010.4
20260505021031 15 254 1.6 6.4 0.00 0.00 0.00 50 1010.4
20260505020531 15 220 3.2 11.3 0.00 0.00 0.00 50 1010.3
20260505020031 15 202 1.6 6.4 0.00 0.00 0.00 50 1010.3
20260505015531 15 230 3.2 12.9 0.00 0.00 0.00 49 1010.2
20260505015050 15 247 3.2 9.7 0.00 0.00 0.00 48 1010.3
20260505014530 15 225 3.2 17.7 0.00 0.00 0.00 48 1010.3
20260505014030 15 221 3.2 17.7 0.00 0.00 0.00 49 1010.1
20260505013550 15 233 1.6 9.7 0.00 0.00 0.00 48 1010.1
20260505013030 15 235 4.8 17.7 0.00 0.00 0.00 47 1010.0
20260505012530 15 209 3.2 12.9 0.00 0.00 0.00 47 1010.0
20260505012029 16 229 3.2 12.9 0.00 0.00 0.00 46 1009.8
20260505011549 16 237 3.2 12.9 0.00 0.00 0.00 46 1009.8
20260505011029 16 235 3.2 14.5 0.00 0.00 0.00 45 1009.7
20260505010531 16 233 3.2 14.5 0.00 0.00 0.00 45 1009.6
20260505010031 16 240 1.6 14.5 0.00 0.00 0.00 45 1009.6
20260505005531 16 238 4.8 14.5 0.00 0.00 0.00 44 1009.3
20260505005030 16 223 4.8 25.7 0.00 0.00 0.00 44 1009.4
20260505004530 16 186 3.2 16.1 0.00 0.00 0.00 44 1009.2
20260505004030 16 207 3.2 16.1 0.00 0.00 0.00 44 1009.1
20260505003530 16 245 4.8 12.9 0.00 0.00 0.00 44 1009.0
20260505003030 17 234 3.2 16.1 0.00 0.00 0.00 43 1008.8
20260505002550 17 200 3.2 20.9 0.00 0.00 0.00 43 1008.6
20260505002030 17 230 4.8 22.5 0.00 0.00 0.00 42 1008.6
20260505001530 17 245 3.2 12.9 0.00 0.00 0.00 42 1008.5
20260505001029 17 212 4.8 14.5 0.00 0.00 0.00 42 1008.4
20260505000529 17 206 4.8 22.5 0.00 0.00 0.00 42 1008.2
20260505000029 17 255 4.8 22.5 0.00 0.00 0.00 41 1008.2
20260504235529 17 239 4.8 29.0 0.00 0.00 0.00 41 1008.0
20260504235051 17 192 3.2 29.0 0.00 0.00 0.00 41 1008.0
20260504234531 18 226 4.8 33.8 0.00 0.00 0.00 40 1007.9
20260504234031 18 236 4.8 14.5 0.00 0.00 0.00 40 1007.9
20260504233530 18 238 4.8 11.3 0.00 0.00 0.00 39 1007.7
20260504233031 18 206 4.8 16.1 0.00 0.00 0.00 38 1007.7
20260504232530 18 228 3.2 20.9 0.00 0.00 0.00 38 1007.5
20260504232050 18 240 4.8 20.9 0.00 0.00 0.00 37 1007.5
20260504231530 18 278 3.2 12.9 0.00 0.00 0.00 37 1007.4
20260504231030 19 258 4.8 17.7 0.00 0.00 0.00 36 1007.3
20260504230530 19 215 4.8 17.7 0.00 0.00 0.00 36 1007.1
20260504230029 19 241 4.8 17.7 0.00 0.00 0.00 35 1007.0
20260504225529 20 221 3.2 14.5 0.00 0.00 0.00 35 1006.9
20260504225029 20 225 3.2 20.9 0.00 0.00 0.00 34 1006.7
20260504224529 20 207 4.8 17.7 0.00 0.00 0.00 33 1006.7
20260504224031 20 252 6.4 17.7 0.00 0.00 0.00 31 1006.7
20260504223531 20 263 3.2 12.9 0.00 0.00 0.00 30 1006.6
20260504223030 21 224 3.2 14.5 0.00 0.00 0.00 30 1006.5
20260504222531 21 237 3.2 14.5 0.00 0.00 0.00 30 1006.5
20260504222030 21 228 3.2 14.5 0.00 0.00 0.00 29 1006.5
20260504221531 21 219 3.2 16.1 0.00 0.00 0.00 30 1006.6
20260504221030 21 257 3.2 9.7 0.00 0.00 0.00 29 1006.5
20260504220530 21 253 3.2 9.7 0.00 0.00 0.00 29 1006.5
20260504220030 21 229 3.2 22.5 0.00 0.00 0.00 29 1006.5
20260504215550 21 298 3.2 6.4 0.00 0.00 0.00 30 1006.6
20260504215030 21 250 3.2 6.4 0.00 0.00 0.00 30 1006.6
20260504214610 21 242 1.6 11.3 0.00 0.00 0.00 29 1006.4
20260504214029 21 199 3.2 9.7 0.00 0.00 0.00 29 1006.6
20260504213529 21 183 1.6 6.4 0.00 0.00 0.00 28 1006.6
20260504213029 21 261 3.2 6.4 0.00 0.00 0.00 29 1006.7
20260504212551 21 280 3.2 16.1 0.00 0.00 0.00 28 1006.6
20260504212030 21 133 3.2 9.7 0.00 0.00 0.00 29 1006.5
20260504211531 21 322 1.6 6.4 0.00 0.00 0.00 28 1006.5
20260504211030 21 236 3.2 9.7 0.00 0.00 0.00 28 1006.6
20260504210530 21 316 3.2 11.3 0.00 0.00 0.00 27 1006.6
20260504210030 21 219 4.8 12.9 0.00 0.00 0.00 29 1006.7
20260504205530 21 19 4.8 20.9 0.00 0.00 0.00 28 1006.6
20260504205030 21 288 4.8 14.5 0.00 0.00 0.00 28 1006.5
20260504204530 21 139 3.2 16.1 0.00 0.00 0.00 28 1006.6
20260504204030 22 250 1.6 12.9 0.00 0.00 0.00 27 1006.6
20260504203529 22 206 3.2 16.1 0.00 0.00 0.00 28 1006.5
20260504203029 22 217 1.6 9.7 0.00 0.00 0.00 28 1006.6
20260504202530 21 211 1.6 20.9 0.00 0.00 0.00 28 1006.6
20260504202030 21 250 3.2 20.9 0.00 0.00 0.00 26 1006.7
20260504201530 22 341 4.8 25.7 0.00 0.00 0.00 26 1006.8
20260504201110 22 181 6.4 25.7 0.00 0.00 0.00 26 1006.7
20260504200550 22 324 3.2 16.1 0.00 0.00 0.00 26 1006.8
20260504200029 22 290 4.8 16.1 0.00 0.00 0.00 28 1006.8
20260504195529 22 267 3.2 11.3 0.00 0.00 0.00 27 1006.7
20260504195029 22 278 3.2 11.3 0.00 0.00 0.00 27 1006.7
20260504194529 22 250 3.2 11.3 0.00 0.00 0.00 26 1006.9
20260504194029 22 285 4.8 12.9 0.00 0.00 0.00 26 1006.9
20260504193549 22 359 4.8 11.3 0.00 0.00 0.00 27 1006.8
20260504193030 22 268 4.8 12.9 0.00 0.00 0.00 26 1006.8
20260504192530 22 294 4.8 16.1 0.00 0.00 0.00 25 1006.8
20260504192050 22 263 4.8 16.1 0.00 0.00 0.00 26 1006.7
20260504191530 22 245 3.2 17.7 0.00 0.00 0.00 26 1006.9
20260504191029 22 332 3.2 17.7 0.00 0.00 0.00 26 1006.9
20260504190529 22 277 3.2 11.3 0.00 0.00 0.00 27 1007.0
20260504190032 22 210 4.8 14.5 0.00 0.00 0.00 26 1007.0
20260504185530 22 260 4.8 11.3 0.00 0.00 0.00 26 1007.2
20260504185110 22 308 3.2 20.9 0.00 0.00 0.00 27 1007.1
20260504184529 21 316 4.8 20.9 0.00 0.00 0.00 27 1007.1
20260504184029 22 21 4.8 16.1 0.00 0.00 0.00 26 1007.2
20260504183529 22 263 4.8 17.7 0.00 0.00 0.00 27 1007.2
20260504183049 21 215 4.8 17.7 0.00 0.00 0.00 28 1007.2
20260504182530 21 240 6.4 17.7 0.00 0.00 0.00 27 1007.3
20260504182050 21 287 4.8 14.5 0.00 0.00 0.00 28 1007.3
20260504181534 21 266 6.4 16.1 0.00 0.00 0.00 27 1007.4
20260504181029 21 264 4.8 24.1 0.00 0.00 0.00 29 1007.3
20260504180529 21 221 6.4 24.1 0.00 0.00 0.00 28 1007.4
20260504180029 21 253 4.8 20.9 0.00 0.00 0.00 28 1007.3
20260504175530 21 188 3.2 17.7 0.00 0.00 0.00 29 1007.4
20260504175029 21 242 4.8 9.7 0.00 0.00 0.00 28 1007.5
20260504174531 21 239 4.8 12.9 0.00 0.00 0.00 28 1007.7
20260504174031 21 318 4.8 12.9 0.00 0.00 0.00 28 1007.7
20260504173611 21 205 3.2 12.9 0.00 0.00 0.00 28 1007.6
20260504173030 21 226 4.8 12.9 0.00 0.00 0.00 30 1007.7
20260504172531 21 262 4.8 17.7 0.00 0.00 0.00 28 1007.9
20260504172030 21 250 4.8 17.7 0.00 0.00 0.00 29 1007.6
20260504171610 21 216 4.8 14.5 0.00 0.00 0.00 29 1007.7
20260504171030 21 20 3.2 20.9 0.00 0.00 0.00 28 1007.6
20260504170530 20 223 6.4 20.9 0.00 0.00 0.00 29 1007.7
20260504151030 20 315 3.2 12.9 0.00 0.00 0.00 33 1008.9
20260504150529 19 211 3.2 12.9 0.00 0.00 0.00 33 1009.0
20260504141030 17 302 3.2 9.7 0.00 0.00 0.00 38 1009.5
20260504140529 17 313 3.2 6.4 0.00 0.00 0.00 37 1009.6
20260504130530 15 239 1.6 6.4 0.00 0.00 0.00 40 1010.4
20260504110530 10 218 1.6 6.4 0.00 0.00 0.00 50 1010.7
20260504100530 6 0.0 0.0 0.00 0.00 0.00 71 1010.6